Location: Breungeshain
(50.5000°N, 9.2000°E)
Time: 17:41:31
(UTC+00:00)

ISS - Pass Details

Date: 22 May 2018
Orbit: 402 x 407 km, 51.6° (Epoch: 27 May)

Event Time Altitude Azimuth Distance (km) Brightness Sun altitude
Rises 02:40:28 0° 282° (WNW) 2,320 -0.3 -6.5°
Reaches altitude 10° 02:43:08 10° 259° (WSW) 1,457 -1.5 -6.2°
Maximum altitude 02:45:09 16° 220° (SW) 1,169 -2.1 -6.0°
Drops below altitude 10° 02:47:10 10° 182° (S) 1,451 -1.4 -5.7°
Sets 02:49:49 0° 159° (SSE) 2,306 -0.2 -5.4°
